This demonstration page uses our WeatherBlox Daily Observations layout. Learn more.

Left ArrowRight Arrow

53.62937, 11.41316

Hourly Observations for March 5, 2021

Temp ( °F °C ) Dew Point ( °F °C ) Humidity (%) Winds ( mph kmh ) Pressure ( in mb ) Visibility ( mi km ) Precip ( " mm )
7:50 am 07:50 Mostly Sunny 28 -2 27 -3 93 93 W 3 6 30.27 1025 7 11 N/A
8:20 am 08:20 Mostly Sunny 30 -1 27 -3 86 86 W 3 6 30.30 1026 7 11 N/A
8:50 am 08:50 Mostly Sunny 32 0 28 -2 87 87 NW 3 6 30.30 1026 7 11 N/A
9:20 am 09:20 Mostly Sunny 34 1 28 -2 81 81 WNW 3 6 30.30 1026 7 11 N/A
9:50 am 09:50 Mostly Sunny 37 3 28 -2 70 70 VRB 3 6 30.33 1027 7 11 N/A
10:20 am 10:20 Mostly Sunny 37 3 27 -3 65 65 VRB 5 7 30.33 1027 7 11 N/A
10:50 am 10:50 Mostly Sunny 39 4 23 -5 52 52 W 5 7 30.33 1027 7 11 N/A
11:20 am 11:20 Mostly Sunny 39 4 19 -7 45 45 VRB 3 6 30.33 1027 7 11 N/A
11:50 am 11:50 Mostly Sunny 41 5 12 -11 31 31 WSW 6 9 30.36 1028 7 11 N/A
12:20 pm 12:20 Mostly Sunny 41 5 18 -8 39 39 VRB 5 7 30.36 1028 7 11 N/A
12:50 pm 12:50 Mostly Sunny 43 6 19 -7 39 39 VRB 6 9 30.36 1028 7 11 N/A
1:20 pm 13:20 Mostly Sunny 43 6 18 -8 36 36 VRB 5 7 30.36 1028 7 11 N/A
1:50 pm 13:50 Mostly Sunny 43 6 19 -7 39 39 W 6 9 30.36 1028 7 11 N/A
2:20 pm 14:20 Mostly Sunny 43 6 18 -8 36 36 VRB 5 7 30.36 1028 7 11 N/A
2:50 pm 14:50 Mostly Sunny 43 6 18 -8 36 36 W 6 9 30.36 1028 7 11 N/A
3:20 pm 15:20 Mostly Sunny 45 7 19 -7 37 37 VRB 5 7 30.36 1028 7 11 N/A
3:50 pm 15:50 Mostly Sunny 45 7 18 -8 34 34 VRB 3 6 30.36 1028 7 11 N/A
4:20 pm 16:20 Mostly Sunny 43 6 18 -8 36 36 VRB 5 7 30.36 1028 7 11 N/A
4:50 pm 16:50 Mostly Sunny 43 6 19 -7 39 39 VRB 6 9 30.36 1028 7 11 N/A
5:20 pm 17:20 Mostly Sunny 41 5 19 -7 42 42 WSW 3 6 30.36 1028 7 11 N/A
5:50 pm 17:50 Mostly Sunny 41 5 21 -6 45 45 WSW 3 6 30.36 1028 7 11 N/A
6:20 pm 18:20 Mostly Clear 39 4 21 -6 48 48 VRB 1 2 30.39 1029 7 11 N/A
6:50 pm 18:50 Mostly Clear 36 2 21 -6 56 56 SSW 3 6 30.39 1029 7 11 N/A
7:20 pm 19:20 Mostly Clear 36 2 23 -5 60 60 SW 3 6 30.39 1029 7 11 N/A
7:50 pm 19:50 Mostly Clear 36 2 25 -4 65 65 WSW 5 7 30.39 1029 7 11 N/A

Powered by AerisWeather